Regional Weather Roundup
Issued by NWS Lake Charles, LA

Home | Current Version | Previous Version | Text Only | Print | Product List | Glossary On
Versions: 1 2 3 4 5 6 7 8 9 10 11 12 13 14 15 16 17 18 19 20 21 22 23 24 25 26 27 28 29 30 31 32 33 34 35 36 37 38 39 40 41 42 43 44 45 46 47 48 49 50
000
ASUS44 KLCH 031610
RWRLCH
RWRLCH
REGIONAL WEATHER ROUNDUP
NATIONAL WEATHER SERVICE LAKE CHARLES LA
1000 AM CST TUE MAR 03 2015

Note: "fair" indicates few or no clouds below 12,000 feet with no
significant weather and/or obstructions to visibility.


ACROSS SOUTHEAST TEXAS

CITY           SKY/WX    TMP DP  RH WIND       PRES   REMARKS
BEAUMONT       CLOUDY    65  64  97 SE8       30.06S FOG
BEAUMONT CITY  FOG       63  63 100 S5        30.07S VSB 1/2
ORANGE         FOG       63  63 100 SE5       30.08S VSB 1/2
JASPER         FOG       58  57  98 CALM      30.08S VSB 1
$$

ACROSS CENTRAL LOUISIANA

CITY           SKY/WX    TMP DP  RH WIND       PRES   REMARKS
LEESVILLE      FOG       59  58  98 SE6       30.07S VSB 1
FULLERTON      FOG       60  56  86 CALM      30.05S VSB 1/2
ALEXANDRIA INT FOG       53  53 100 SE7       30.07F VSB 1/2
ESLER FIELD    CLOUDY    55  53  93 S3        30.09F FOG
DERIDDER       FOG       60  58  96 CALM      30.09S VSB 1
OAKDALE        CLOUDY    60  59  97 CALM      30.09R FOG
OPELOUSAS      CLOUDY    62  62  99 SE8       30.09S FOG
$$

ACROSS SOUTHWEST AND SOUTH CENTRAL LOUISIANA

CITY           SKY/WX    TMP DP  RH WIND       PRES   REMARKS
SULPHUR        CLOUDY    64  64 100 SE5       30.08S FOG
LAKE CHARLES   CLOUDY    64  63  96 SE8       30.07F FOG
CHENNAULT INT  CLOUDY    61  61 100 SE5       30.08S FOG
CAMERON PHI    FOG       61  61 100 SE8       30.10S VSB 0
DEQUINCY       NOT AVBL
JENNINGS       CLOUDY    63  63 100 SE9       30.08S
LAFAYETTE      FOG       65  65 100 SE5       30.09F VSB 3/4
NEW IBERIA     CLOUDY    70  68  93 SE7       30.09F FOG
ABBEVILLE      NOT AVBL
PATTERSON      CLOUDY    72  70  94 SE9       30.10F
SALT POINT       N/A     69  69 100 SE9       30.09S
$$

SELECTED SITES ACROSS THE REGION

CITY           SKY/WX    TMP DP  RH WIND       PRES   REMARKS
HOUSTON BUSH   FOG       64  64 100 SE9       30.04S VSB 1/8
HOUSTON HOBBY  FOG       65  65 100 S7        30.04S VSB 1
GALVESTON      FOG       65  65 100 S14       30.06R VSB 1/2
COLLEGE STAT   FOG       53  53 100 SE7       30.00F VSB 1/4
CONROE         CLOUDY    62  61  96 S10       30.04F FOG
HUNTSVILLE     CLOUDY    62  61  96 S7        30.02F FOG
LUFKIN         CLOUDY    59  56  89 SE6       30.04F FOG
SHREVEPORT     FOG       49  48  97 SE5       30.04F VSB 1/4
MONROE         FOG       49  49 100 S3        30.10S VSB 1/2
NATCHEZ MS     CLOUDY    64  63  94 S9        30.10F
BATON ROUGE    CLOUDY    69  68  96 SE7       30.11S FOG
N.O. INTL ARPT PTSUNNY   74  68  81 S8        30.13F
SLIDELL        PTSUNNY   70  68  93 SE8       30.14F
$$

MARINE REPORTS

STATION/POSITION TIME  TEMP    WIND        PRES    VSBY  WAVE
                       AIR SEA DIR/SP/G                  HT/PER
                 (UTC) (F)     (DEG/KT/KT) (MB)    (MI)  (FT/S)
BUOY 30 S HIGH I 1600   61 58  150/  8/  8 1017.6R         2/ 6
SEA RIM ST PARK  1600   60     130/  7/  9 1018.7R
PORT ARTHUR      1600      55  170/  3/  6   N/A
SABINE PASS N    1600   59 54  150/  8/  9   N/A
TEXAS POINT      NOT AVBL
CALCASIEU PASS   1600   59 55  140/  8/ 10   N/A
LK CHARLES BEACH 1600   61 56                N/A
MARSH ISLAND     1500   61     140/ 12/ 13   N/A           0
FRESH WATER LOCK 1600   65 60  120/ 10/ 14   N/A
AMERADA PASS     1600   69 48  150/  5/  7   N/A
$$


USA.gov is the U.S. government's official web portal to all federal, state and local government web resources and services.